Location: Sternwarte auf dem Internationalen Platz Vogelsang IP
(50.5721°N, 6.4398°E)
Time: 15:51:39
(UTC+01:00)

Transit 2A Rocket - Pass Details

Date: 17 December 2025
Orbit: 581 x 903 km, 66.7° (Epoch: 16 January)

Event Time Altitude Azimuth Distance (km) Brightness Sun altitude
Rises 08:32:52 0° 217° (SW) 3,322 8.3 -0.5°
Reaches altitude 10° 08:35:13 10° 218° (SW) 2,436 7.6 -0.2°
Maximum altitude 08:40:56 85° 307° (NW) 882 5.4 0.5°
Drops below altitude 10° 08:47:00 10° 37° (NE) 2,581 7.7 1.2°
Sets 08:49:33 0° 38° (NE) 3,534 8.4 1.5°
